Location: Endfield
(51.6667°N, 0.0667°W)
Time: 06:32:37
(UTC+00:00)

Cosmos 1420 Rocket - Pass Details

Date: 19 May 2024
Orbit: 752 x 779 km, 74.0° (Epoch: 19 June)

Event Time Altitude Azimuth Distance (km) Brightness Sun altitude
Rises 20:26:48 0° 335° (NNW) 3,270 8.7 -5.0°
Reaches altitude 10° 20:29:12 10° 337° (NNW) 2,341 7.8 -5.2°
Maximum altitude 20:34:32 78° 64° (ENE) 804 4.1 -5.8°
Drops below altitude 10° 20:39:50 10° 151° (SSE) 2,328 5.9 -6.4°
Enters shadow 20:40:36 - 152° (SSE) 2,621 6.1 -6.5°
